Location: Homer
(59.6430°N, 151.5480°W)
Time: 17:26:52
(UTC-08:00)

Daily predictions for brighter satellites

Satellite Brightness Start Highest point End
(mag) Time Altitude Azimuth Time Altitude Azimuth Time Altitude Azimuth
ATLAS 3B R/B 3.3 22:19:34 10° W 22:26:48 63° N 22:33:38 10° ENE
Cosmos 2278 Rocket 3.1 22:26:06 10° NW 22:31:32 43° NNE 22:36:56 10° ESE
MetOp-B 4.2 22:27:48 10° SSE 22:33:11 86° ENE 22:38:35 10° NNW
DNEPR-1 R/B 4.0 22:28:42 10° SSW 22:33:56 55° SE 22:38:25 10° ENE
Cosmos 1331 Rocket 4.3 22:29:03 10° SW 22:34:23 80° WNW 22:39:45 10° NNE
Cosmos 2279 Rocket 4.0 22:32:07 10° S 22:38:18 68° E 22:44:30 10° NNE
SPOT 1/Viking Rocket 3.7 22:33:41 10° SE 22:38:51 64° ENE 22:44:02 10° NNW
USA 238 DEB 4.2 22:31:51 10° W 22:38:51 66° N 22:45:55 10° ENE
USA 238 4.2 22:31:57 10° W 22:38:57 66° N 22:46:01 10° ENE
Cosmos 2084 3.3 22:35:42 10° WNW 22:39:30 73° NNE 22:43:21 10° ESE
Sich 1 Rocket 3.6 22:36:19 10° NNW 22:40:47 82° ENE 22:45:16 10° SSE
ARGOS 3.2 22:36:10 10° SSE 22:41:32 81° ENE 22:46:57 10° NNW
Cosmos 1455 3.4 22:38:37 10° SW 22:42:18 47° WNW 22:45:59 10° N
Cosmos 1844 Rocket 2.8 22:37:42 10° NW 22:43:19 72° NE 22:48:54 10° SE
Intercosmos 25 Rocket 3.5 22:41:42 10° S 22:45:10 85° E 22:50:14 10° NNE
Cosmos 1869 3.7 22:44:05 10° SSW 22:48:01 68° WNW 22:52:00 10° N
Cosmos 2360 4.2 22:42:44 10° SSW 22:48:27 75° SE 22:54:13 10° NE
ERS-1 Rocket 3.6 22:44:48 10° S 22:49:46 57° WSW 22:54:45 10° NNW
Cosmos 1908 Rocket 3.7 22:52:53 10° NNW 22:57:15 75° W 23:01:35 10° S
Cosmos 1777 Rocket 4.1 22:52:59 10° NNW 22:58:20 87° ENE 23:03:33 10° SSE
Meteor 1-14 Rocket 4.3 22:55:15 10° NNW 23:00:53 87° WSW 23:06:36 10° SSE
H-2A R/B 2.4 22:58:34 11° SE 23:02:38 56° ENE 23:06:56 10° NNW
Abrixas rocket 4.4 23:02:51 10° S 23:03:16 10° SSE 23:03:27 10° SSE
COSMOS 2455 4.0 22:58:58 10° W 23:04:48 47° NNW 23:10:39 10° ENE
SeaSat 1 3.3 23:00:28 10° S 23:05:12 44° WSW 23:09:57 10° NW
USA 245 4.3 23:02:20 10° S 23:08:04 73° WSW 23:12:49 10° NNW
Cosmos 1992 Rocket 4.1 23:03:08 10° S 23:08:15 55° ESE 23:13:24 10° NE
Cosmos 1933 3.3 23:05:15 10° S 23:09:18 87° ESE 23:13:22 10° NNE
YAOGAN 6 4.4 23:06:14 10° SSW 23:09:29 29° W 23:12:42 10° NNW
NOSS 3-2 (C) 4.1 23:03:12 10° W 23:09:44 70° NNW 23:17:06 10° ENE
Genesis I 4.0 23:06:02 10° W 23:09:56 56° NNW 23:13:52 10° ENE
Meteor 1-29 4.1 23:07:05 10° N 23:10:30 48° WNW 23:13:52 10° SW
Cosmos 2219 Rocket 4.0 23:08:47 10° ESE 23:10:47 12° E 23:12:47 10° ENE
Cosmos 1782 Rocket 3.6 23:06:47 10° NNW 23:11:11 86° WSW 23:15:33 10° S
Okean 2 Rocket 3.1 23:07:27 10° NNW 23:12:02 77° ENE 23:16:22 11° SSE
Landsat 7 3.9 23:07:55 11° SSE 23:12:33 76° ENE 23:17:21 10° NNW
Molniya-1 4.1 23:10:33 10° SSW 23:12:44 32° SE 23:16:03 10° ENE
MOS 1-B Rocket 4.1 23:08:11 10° S 23:14:04 72° WSW 23:19:42 10° NNW
Cosmos 1697 Rocket 3.5 23:10:02 10° WSW 23:15:36 56° NW 23:21:10 10° NE
Cosmos 1461 4.2 23:12:24 10° W 23:16:12 41° N 23:20:03 10° ENE
CZ-4C R/B 4.3 23:15:21 13° ESE 23:18:17 32° ENE 23:21:35 10° N
Helios 1B rocket 3.8 23:14:36 10° N 23:18:32 43° WNW 23:22:26 10° SW
Meteor 1-25 Rocket 4.3 23:14:02 10° NNW 23:19:43 84° WSW 23:25:18 10° S
Cosmos 44 4.3 23:15:26 10° W 23:19:55 45° NNW 23:24:13 10° ENE
Iridium 4 Rocket 4.2 23:17:14 10° N 23:20:59 28° ENE 23:23:52 14° SE
Cosmos 2263 Rocket 3.8 23:18:19 10° NW 23:22:58 28° WSW 23:27:36 10° SSW
Lacrosse 4 Rocket 4.1 23:21:27 10° W 23:23:07 12° WSW 23:24:48 10° SW
Cosmos 839 Rocket 4.5 23:17:48 10° WSW 23:24:31 69° NNW 23:30:41 10° ENE
CENTAUR R/B 2.9 23:20:53 10° WSW 23:27:30 85° NNW 23:35:08 10° ENE
Spot 4 4.3 23:23:38 14° SE 23:27:33 51° ENE 23:32:12 10° NNW
Terra 1.9 23:23:31 14° SSE 23:27:41 76° ENE 23:32:29 10° NNW
USA 129 2.0 23:26:42 10° NE 23:27:46 28° E 23:27:46 28° E
IGS 5A 3.5 23:24:36 15° SSE 23:28:02 69° ENE 23:32:11 10° NNW
Cosmos 2369 Rocket 4.0 23:24:57 10° NW 23:29:46 28° NNE 23:34:35 10° ENE
H-2A R/B 2.2 23:25:56 10° S 23:30:55 71° WSW 23:35:53 10° NNW
COSMOS 2428 3.8 23:28:54 14° SSE 23:32:28 25° ESE 23:37:02 10° NE
Cosmos 1862 Rocket 4.2 23:29:47 10° SSW 23:34:12 59° WNW 23:38:41 10° N
USA 229 DEB 4.5 23:28:36 10° S 23:34:17 29° ESE 23:40:06 10° ENE
Cosmos 2322 Rocket 2.1 23:30:35 10° SSW 23:36:12 81° SE 23:41:53 10° NE
SL-08 RB Rocket 4.5 23:32:41 10° S 23:37:09 50° W 23:41:37 10° NNW
deb Chang Zheng 4 4.4 23:35:42 10° NNE 23:39:47 35° E 23:42:36 17° SSE
Cosmos 1606 3.5 23:38:18 18° SE 23:40:28 33° E 23:43:54 10° NNE
Meteor 1-20 Rocket 4.4 23:35:51 10° NNW 23:41:20 68° W 23:46:38 11° S
Meteor 2-10 Rocket 3.8 23:37:11 10° SSW 23:43:02 86° WNW 23:48:51 10° NNE
Cosmos 1844 3.8 23:37:20 10° NW 23:43:04 71° SW 23:47:31 17° SSE
Cosmos 2151 Rocket 3.6 23:40:50 10° NNW 23:45:17 82° ENE 23:48:38 17° SSE
Cosmos 2360 Rocket 2.4 23:41:42 10° SSW 23:47:09 51° ESE 23:52:40 10° NE
Cosmos 1980 Rocket 3.1 23:42:40 10° WSW 23:48:16 54° NW 23:53:54 10° NE
Cosmos 1782 3.2 23:46:07 18° SSE 23:48:52 47° E 23:52:46 10° NNE
Cosmos 1745 Rocket 4.2 23:42:49 10° N 23:49:06 66° ENE 23:54:04 17° SSE
Okean 1-7 3.0 23:45:50 12° S 23:49:57 72° E 23:54:23 10° NNE
NOSS 3-2 (A) 4.2 23:45:44 10° W 23:52:23 65° N 23:59:51 10° E
USA 267 3.2 23:46:07 10° E 23:52:40 72° S 23:59:14 10° WSW
Cosmos 1633 2.5 23:49:24 10° NNW 23:53:05 82° ENE 23:55:25 21° SSE
Cosmos 2322 3.9 23:47:37 10° S 23:53:06 50° ESE 23:58:36 10° NE
ASTEX 1 3.4 23:49:24 16° SSE 23:53:23 79° E 23:58:24 10° N
Cosmos 1703 Rocket 3.7 23:49:30 10° SSW 23:53:57 81° WNW 23:58:24 10° NNE
